,,Stat6,,Stat2,,Stat8,,Stat9,,Stat10,,Wind1,,Wind1,
time,status,PA1M_AVG,status,PR1M_SUM,status,RH1M_AVG,status,SR1M_AVG,status,TA1M_AVG,status,W1dAve1m,status,W1sAve1m,
2006-05-14, 00:00:00,VALID,918.659,VALID,0,VALID,98.7147,VALID,-0.169808,VALID,20.2501,VALID,23,VALID,0.744186,
2006-05-14, 00:01:00,VALID,918.664,VALID,0,VALID,98.7248,VALID,-0.20377,VALID,20.1842,VALID,18,VALID,0.573331,
2006-05-14, 00:02:00,VALID,918.654,VALID,0,VALID,98.6765,VALID,-0.288674,VALID,22.0471,VALID,15,VALID,0.277004,
2006-05-14, 00:03:00,VALID,918.659,VALID,0,VALID,98.7363,VALID,-0.20377,VALID,21.09,VALID,15,VALID,0.263579,
2006-05-14, 00:04:00,VALID,918.647,VALID,0,VALID,98.7935,VALID,-0.186789,VALID,20.0792,VALID,15,VALID,0.25705,
2006-05-14, 00:05:00,VALID,918.653,VALID,0,VALID,98.8609,VALID,-0.20377,VALID,21.425,VALID,15,VALID,0.280556,
2006-05-14, 00:06:00,VALID,918.64,VALID,0,VALID,98.8571,VALID,-0.186789,VALID,22.3741,VALID,17,VALID,0.428085,
2006-05-14, 00:07:00,VALID,918.632,VALID,0,VALID,98.8355,VALID,-0.271693,VALID,20.7301,VALID,19,VALID,0.940739,
2006-05-14, 00:08:00,VALID,918.626,VALID,0,VALID,98.8037,VALID,-0.152827,VALID,21.1384,VALID,22,VALID,1.17351,
2006-05-14, 00:09:00,VALID,918.64,VALID,0,VALID,98.7007,VALID,-0.20377,VALID,22.2273,VALID,25,VALID,1.12198,
2006-05-14, 00:10:00,VALID,918.643,VALID,0,VALID,98.6231,VALID,-0.186789,VALID,20.5393,VALID,22,VALID,1.38449,
2006-05-14, 00:11:00,VALID,918.667,VALID,0,VALID,98.6651,VALID,-0.169808,VALID,20.5965,VALID,23,VALID,1.19996,
2006-05-14, 00:12:00,VALID,918.694,VALID,0,VALID,98.6104,VALID,-0.20377,VALID,21.5286,VALID,19,VALID,0.991016,
2006-05-14, 00:13:00,VALID,918.709,VALID,0,VALID,98.6269,VALID,-0.186789,VALID,21.8382,VALID,25,VALID,1.13008,
2006-05-14, 00:14:00,VALID,918.732,VALID,0,VALID,98.7274,VALID,-0.186789,VALID,20.7534,VALID,25,VALID,0.977307,
2006-05-14, 00:15:00,VALID,918.732,VALID,0,VALID,98.6752,VALID,-0.305655,VALID,21.836,VALID,25,VALID,0.759115,
2006-05-14, 00:16:00,VALID,918.734,VALID,0,VALID,98.7388,VALID,-0.271693,VALID,21.5837,VALID,28,VALID,0.653125,
2006-05-14, 00:17:00,VALID,918.715,VALID,0,VALID,98.7414,VALID,-0.186789,VALID,21.6657,VALID,19,VALID,0.512277,
2006-05-14, 00:18:00,VALID,918.7,VALID,0,VALID,98.7655,VALID,-0.220751,VALID,21.7585,VALID,19,VALID,0.397852,
2006-05-14, 00:19:00,VALID,918.675,VALID,0,VALID,98.721,VALID,-0.271693,VALID,21.6426,VALID,19,VALID,0.385352,
2006-05-14, 00:20:00,VALID,918.678,VALID,0,VALID,98.6956,VALID,-0.322636,VALID,20.8347,VALID,19,VALID,0.212003,
2006-05-14, 00:21:00,VALID,918.661,VALID,0,VALID,98.7414,VALID,-0.237732,VALID,21.2886,VALID,19,VALID,0.0195313,
2006-05-14, 00:22:00,VALID,918.664,VALID,0,VALID,98.6574,VALID,-0.503142,VALID,21.4733,VALID,19,VALID,0.0101207,
2006-05-14, 00:23:00,VALID,918.654,VALID,0,VALID,98.4565,VALID,-1,VALID,22.1909,VALID,19,VALID,0.139291,
2006-05-14, 00:24:00,VALID,918.661,VALID,0,VALID,98.295,VALID,-0.867295,VALID,21.3886,VALID,16,VALID,0.287674,
2006-05-14, 00:25:00,VALID,918.664,VALID,0,VALID,98.3777,VALID,-0.237732,VALID,20.6957,VALID,4,VALID,0.230097,
2006-05-14, 00:26:00,VALID,918.667,VALID,0,VALID,98.4489,VALID,-0.237732,VALID,19.5759,VALID,4,VALID,0,
2006-05-14, 00:27:00,VALID,918.653,VALID,0,VALID,98.7007,VALID,-0.237732,VALID,22.3695,VALID,4,VALID,0.00971799,
2006-05-14, 00:28:00,VALID,918.648,VALID,0,VALID,98.8558,VALID,-0.271693,VALID,21.7922,VALID,6,VALID,0.344122,
2006-05-14, 00:29:00,VALID,918.648,VALID,0,VALID,98.8151,VALID,-0.237732,VALID,20.8206,VALID,14,VALID,0.266992,
2006-05-14, 00:30:00,VALID,918.635,VALID,0,VALID,98.6829,VALID,-0.237732,VALID,22.0444,VALID,14,VALID,0.0347222,
2006-05-14, 00:31:00,VALID,918.624,VALID,0,VALID,98.6892,VALID,-0.254712,VALID,21.9512,VALID,14,VALID,0.122582,
2006-05-14, 00:32:00,VALID,918.618,VALID,0,VALID,98.5315,VALID,-0.254712,VALID,20.4258,VALID,11,VALID,0.182231,
2006-05-14, 00:33:00,VALID,918.595,VALID,0,VALID,98.6346,VALID,-0.152827,VALID,20.7581,VALID,7,VALID,0.00266335,
2006-05-14, 00:34:00,VALID,918.567,VALID,0,VALID,98.7439,VALID,-0.169808,VALID,20.8084,VALID,7,VALID,0,
2006-05-14, 00:35:00,VALID,918.542,VALID,0,VALID,98.7197,VALID,-0.288674,VALID,21.6042,VALID,7,VALID,0.0650436,
2006-05-14, 00:36:00,VALID,918.524,VALID,0,VALID,98.7439,VALID,-0.271693,VALID,20.5625,VALID,7,VALID,0.126116,
2006-05-14, 00:37:00,VALID,918.539,VALID,0,VALID,98.8139,VALID,-0.254712,VALID,21.8133,VALID,7,VALID,0.00674716,
2006-05-14, 00:38:00,VALID,918.54,VALID,0,VALID,98.8571,VALID,-0.288674,VALID,21.8203,VALID,7,VALID,0.000545058,
2006-05-14, 00:39:00,VALID,918.544,VALID,0,VALID,98.9906,VALID,-0.254712,VALID,22.5733,VALID,7,VALID,0.000186012,
2006-05-14, 00:40:00,VALID,918.556,VALID,0,VALID,98.9842,VALID,-0.186789,VALID,21.0219,VALID,7,VALID,0.265625,
2006-05-14, 00:41:00,VALID,918.546,VALID,0,VALID,99.016,VALID,-0.305655,VALID,21.7801,VALID,7,VALID,0.450721,
2006-05-14, 00:42:00,VALID,918.546,VALID,0,VALID,98.8685,VALID,-0.271693,VALID,21.3983,VALID,7,VALID,0.114844,
2006-05-14, 00:43:00,VALID,918.538,VALID,0,VALID,98.7833,VALID,-0.254712,VALID,23.5769,VALID,5,VALID,0.586293,
2006-05-14, 00:44:00,VALID,918.53,VALID,0,VALID,98.8444,VALID,-0.254712,VALID,20.7804,VALID,274,VALID,0.312682,
2006-05-14, 00:45:00,VALID,918.521,VALID,0,VALID,98.969,VALID,-0.288674,VALID,20.8731,VALID,278,VALID,0.223837,
2006-05-14, 00:46:00,VALID,918.511,VALID,0,VALID,99.0605,VALID,-0.220751,VALID,20.6007,VALID,285,VALID,0.0303199,
2006-05-14, 00:47:00,VALID,918.508,VALID,0,VALID,99.0974,VALID,-0.271693,VALID,21.2613,VALID,235,VALID,0.390244,
2006-05-14, 00:48:00,VALID,918.493,VALID,0,VALID,98.9919,VALID,-0.254712,VALID,21.406,VALID,190,VALID,0.396875,
2006-05-14, 00:49:00,VALID,918.465,VALID,0,VALID,98.9245,VALID,-0.254712,VALID,21.7235,VALID,190,VALID,0.0984375,
2006-05-14, 00:50:00,VALID,918.453,VALID,0,VALID,98.9842,VALID,-0.220751,VALID,21.3237,VALID,149,VALID,0.180088,
2006-05-14, 00:51:00,VALID,918.428,VALID,0,VALID,99.0911,VALID,-0.220751,VALID,20.6818,VALID,40,VALID,0.580171,
2006-05-14, 00:52:00,VALID,918.419,VALID,0,VALID,99.147,VALID,-0.220751,VALID,21.6233,VALID,37,VALID,0.450218,
2006-05-14, 00:53:00,VALID,918.411,VALID,0,VALID,99.0809,VALID,-0.186789,VALID,21.2026,VALID,37,VALID,0.410065,
2006-05-14, 00:54:00,VALID,918.399,VALID,0,VALID,99.0758,VALID,-0.271693,VALID,21.3815,VALID,37,VALID,0.0345982,
2006-05-14, 00:55:00,VALID,918.39,VALID,0,VALID,99.1089,VALID,-0.271693,VALID,21.0781,VALID,37,VALID,0.0517805,
2006-05-14, 00:56:00,VALID,918.356,VALID,0,VALID,99.0466,VALID,-0.20377,VALID,22.3175,VALID,335,VALID,0.470796,
2006-05-14, 00:57:00,VALID,918.33,VALID,0,VALID,98.7554,VALID,-0.20377,VALID,20.405,VALID,257,VALID,0.46005,
2006-05-14, 00:58:00,VALID,918.317,VALID,0,VALID,98.7045,VALID,-0.20377,VALID,21.8083,VALID,254,VALID,0.309411,
2006-05-14, 00:59:00,VALID,918.296,VALID,0,VALID,98.8227,VALID,-0.186789,VALID,21.2462,VALID,244,VALID,0.297057,
2006-05-14, 01:00:00,VALID,918.299,VALID,0,VALID,98.9906,VALID,-0.288674,VALID,21.0695,VALID,244,VALID,0.0985137,
2006-05-14, 01:01:00,VALID,918.294,VALID,0,VALID,99.0834,VALID,-0.220751,VALID,21.4276,VALID,244,VALID,0,
2006-05-14, 01:02:00,VALID,918.296,VALID,0,VALID,99.175,VALID,-0.254712,VALID,21.4896,VALID,244,VALID,0,
2006-05-14, 01:03:00,VALID,918.317,VALID,0,VALID,99.0135,VALID,-0.237732,VALID,21.2949,VALID,244,VALID,0,
2006-05-14, 01:04:00,VALID,918.325,VALID,0,VALID,98.9753,VALID,-0.254712,VALID,20.6331,VALID,244,VALID,0,
2006-05-14, 01:05:00,VALID,918.343,VALID,0,VALID,99.086,VALID,-0.254712,VALID,21.0386,VALID,243,VALID,0,
2006-05-14, 01:06:00,VALID,918.353,VALID,0,VALID,98.8749,VALID,-0.271693,VALID,20.8061,VALID,244,VALID,0.0200893,
2006-05-14, 01:07:00,VALID,918.362,VALID,0,VALID,98.8253,VALID,-0.237732,VALID,20.0825,VALID,244,VALID,0.0253906,
2006-05-14, 01:08:00,VALID,918.364,VALID,0,VALID,98.9703,VALID,-0.220751,VALID,20.7515,VALID,244,VALID,0.231957,
2006-05-14, 01:09:00,VALID,918.374,VALID,0,VALID,99.161,VALID,-0.186789,VALID,20.1579,VALID,325,VALID,0.549306,
2006-05-14, 01:10:00,VALID,918.372,VALID,0,VALID,98.9944,VALID,-0.20377,VALID,20.473,VALID,18,VALID,0.728198,
2006-05-14, 01:11:00,VALID,918.402,VALID,0,VALID,99.0109,VALID,-0.186789,VALID,20.9497,VALID,325,VALID,0.956143,
2006-05-14, 01:12:00,VALID,918.403,VALID,0,VALID,98.7147,VALID,-0.20377,VALID,21.5443,VALID,293,VALID,0.737614,
2006-05-14, 01:13:00,VALID,918.41,VALID,0,VALID,98.8584,VALID,-0.271693,VALID,21.6171,VALID,21,VALID,1.18466,
2006-05-14, 01:14:00,VALID,918.424,VALID,0,VALID,99.0936,VALID,-0.237732,VALID,21.9404,VALID,23,VALID,1.10537,
2006-05-14, 01:15:00,VALID,918.419,VALID,0,VALID,99.2564,VALID,-0.254712,VALID,20.4201,VALID,24,VALID,0.511624,
2006-05-14, 01:16:00,VALID,918.413,VALID,0,VALID,99.2932,VALID,-0.288674,VALID,20.4778,VALID,24,VALID,0.175694,
2006-05-14, 01:17:00,VALID,918.411,VALID,0,VALID,99.1292,VALID,-0.271693,VALID,20.6264,VALID,45,VALID,0.328125,
2006-05-14, 01:18:00,VALID,918.399,VALID,0,VALID,99.1801,VALID,-0.271693,VALID,21.6146,VALID,45,VALID,0.203906,
2006-05-14, 01:19:00,VALID,918.397,VALID,0,VALID,99.1788,VALID,-0.186789,VALID,21.1567,VALID,35,VALID,0.663194,
2006-05-14, 01:20:00,VALID,918.408,VALID,0,VALID,99.1864,VALID,-0.186789,VALID,21.6669,VALID,31,VALID,0.178597,
2006-05-14, 01:21:00,VALID,918.389,VALID,0,VALID,99.0313,VALID,-0.220751,VALID,21.6574,VALID,22,VALID,0.46875,
2006-05-14, 01:22:00,VALID,918.381,VALID,0,VALID,99.0694,VALID,-0.288674,VALID,20.5071,VALID,39,VALID,0.516715,
2006-05-14, 01:23:00,VALID,918.371,VALID,0,VALID,99.1839,VALID,-0.254712,VALID,21.9182,VALID,332,VALID,0.28311,
2006-05-14, 01:24:00,VALID,918.369,VALID,0,VALID,99.2055,VALID,-0.288674,VALID,22.2098,VALID,271,VALID,0.0375744,
2006-05-14, 01:25:00,VALID,918.351,VALID,0,VALID,99.2564,VALID,-0.271693,VALID,21.2473,VALID,271,VALID,0.00621449,
2006-05-14, 01:26:00,VALID,918.35,VALID,0,VALID,99.203,VALID,-0.271693,VALID,21.8809,VALID,271,VALID,0,
2006-05-14, 01:27:00,VALID,918.337,VALID,0,VALID,99.1546,VALID,-0.305655,VALID,19.8226,VALID,271,VALID,0.010831,
2006-05-14, 01:28:00,VALID,918.325,VALID,0,VALID,99.1635,VALID,-0.271693,VALID,20.9955,VALID,271,VALID,0.0415483,
2006-05-14, 01:29:00,VALID,918.31,VALID,0,VALID,99.1813,VALID,-0.288674,VALID,21.3369,VALID,271,VALID,0.0108173,
2006-05-14, 01:30:00,VALID,918.29,VALID,0,VALID,99.2894,VALID,-0.169808,VALID,20.5273,VALID,350,VALID,0.468192,
2006-05-14, 01:31:00,VALID,918.263,VALID,0,VALID,99.2843,VALID,-0.20377,VALID,21.1895,VALID,19,VALID,0.997396,
2006-05-14, 01:32:00,VALID,918.259,VALID,0,VALID,99.0427,VALID,-0.169808,VALID,20.7998,VALID,13,VALID,0.722917,
2006-05-14, 01:33:00,VALID,918.242,VALID,0,VALID,98.8049,VALID,-0.20377,VALID,20.5033,VALID,314,VALID,0.353423,
2006-05-14, 01:34:00,VALID,918.243,VALID,0,VALID,98.9219,VALID,-0.305655,VALID,20.9311,VALID,31,VALID,0.5712,
2006-05-14, 01:35:00,VALID,918.229,VALID,0,VALID,99.1076,VALID,-0.271693,VALID,21.8299,VALID,25,VALID,0.719531,
2006-05-14, 01:36:00,VALID,918.234,VALID,0,VALID,99.3047,VALID,-0.220751,VALID,20.5613,VALID,14,VALID,0.848837,
2006-05-14, 01:37:00,VALID,918.243,VALID,0,VALID,99.3619,VALID,-0.288674,VALID,21.0093,VALID,24,VALID,0.649858,
2006-05-14, 01:38:00,VALID,918.252,VALID,0,VALID,99.3505,VALID,-0.305655,VALID,21.5953,VALID,29,VALID,0.45585,
2006-05-14, 01:39:00,VALID,918.267,VALID,0,VALID,99.3288,VALID,-0.271693,VALID,21.7676,VALID,4,VALID,0.37035,
2006-05-14, 01:40:00,VALID,918.28,VALID,0,VALID,99.3492,VALID,-0.220751,VALID,20.8607,VALID,4,VALID,0.117188,
2006-05-14, 01:41:00,VALID,918.292,VALID,0,VALID,99.325,VALID,-0.20377,VALID,20.9828,VALID,4,VALID,0.270419,
2006-05-14, 01:42:00,VALID,918.292,VALID,0,VALID,99.3454,VALID,-0.237732,VALID,21.0924,VALID,20,VALID,0.616832,
2006-05-14, 01:43:00,VALID,918.31,VALID,0,VALID,99.3632,VALID,-0.305655,VALID,20.7425,VALID,29,VALID,0.615473,
2006-05-14, 01:44:00,VALID,918.306,VALID,0,VALID,99.3276,VALID,-0.305655,VALID,22.1139,VALID,26,VALID,1.07832,
2006-05-14, 01:45:00,VALID,918.306,VALID,0,VALID,99.4013,VALID,-0.288674,VALID,22.1113,VALID,25,VALID,1.29315,
2006-05-14, 01:46:00,VALID,918.313,VALID,0,VALID,99.4102,VALID,-0.305655,VALID,20.3173,VALID,22,VALID,1.09691,
2006-05-14, 01:47:00,VALID,918.303,VALID,0,VALID,99.4013,VALID,-0.305655,VALID,22.1417,VALID,19,VALID,1.08117,
2006-05-14, 01:48:00,VALID,918.312,VALID,0,VALID,99.3695,VALID,-0.271693,VALID,21.1094,VALID,23,VALID,1.09003,
2006-05-14, 01:49:00,VALID,918.329,VALID,0,VALID,99.3873,VALID,-0.186789,VALID,20.786,VALID,21,VALID,0.959223,
2006-05-14, 01:50:00,VALID,918.327,VALID,0,VALID,99.3657,VALID,-0.271693,VALID,21.8111,VALID,24,VALID,0.886433,
2006-05-14, 01:51:00,VALID,918.332,VALID,0,VALID,99.3644,VALID,-0.288674,VALID,21.0142,VALID,23,VALID,0.891868,
2006-05-14, 01:52:00,VALID,918.328,VALID,0,VALID,99.4446,VALID,-0.254712,VALID,19.9016,VALID,22,VALID,0.73274,
2006-05-14, 01:53:00,VALID,918.323,VALID,0,VALID,99.4128,VALID,-0.20377,VALID,22.042,VALID,26,VALID,1.19087,
2006-05-14, 01:54:00,VALID,918.323,VALID,0,VALID,99.4522,VALID,-0.169808,VALID,21.365,VALID,17,VALID,0.981641,
2006-05-14, 01:55:00,VALID,918.329,VALID,0,VALID,99.2704,VALID,-0.152827,VALID,21.344,VALID,22,VALID,1.3471,
2006-05-14, 01:56:00,VALID,918.33,VALID,0,VALID,99.4382,VALID,-0.152827,VALID,21.7159,VALID,24,VALID,1.39189,
2006-05-14, 01:57:00,VALID,918.33,VALID,0,VALID,99.4916,VALID,-0.152827,VALID,21.4544,VALID,24,VALID,1.24574,
2006-05-14, 01:58:00,VALID,918.336,VALID,0,VALID,99.5145,VALID,-0.220751,VALID,20.9925,VALID,21,VALID,1.09659,
2006-05-14, 01:59:00,VALID,918.335,VALID,0,VALID,99.4496,VALID,-0.20377,VALID,21.1267,VALID,15,VALID,0.876698,
2006-05-14, 02:00:00,VALID,918.322,VALID,0,VALID,99.5158,VALID,-0.254712,VALID,20.0365,VALID,23,VALID,1.06432,
2006-05-14, 02:01:00,VALID,918.318,VALID,0,VALID,99.5399,VALID,-0.20377,VALID,21.3364,VALID,2,VALID,0.80878,
2006-05-14, 02:02:00,VALID,918.321,VALID,0,VALID,99.5107,VALID,-0.220751,VALID,21.5207,VALID,356,VALID,0.491146,
2006-05-14, 02:03:00,VALID,918.318,VALID,0,VALID,99.5768,VALID,-0.220751,VALID,22.0694,VALID,17,VALID,0.866338,
2006-05-14, 02:04:00,VALID,918.308,VALID,0,VALID,99.6226,VALID,-0.237732,VALID,21.596,VALID,26,VALID,0.993712,
2006-05-14, 02:05:00,VALID,918.302,VALID,0,VALID,99.6061,VALID,-0.220751,VALID,20.5067,VALID,26,VALID,1.0377,
2006-05-14, 02:06:00,VALID,918.279,VALID,0,VALID,99.5577,VALID,-0.254712,VALID,21.684,VALID,24,VALID,1.1334,
2006-05-14, 02:07:00,VALID,918.271,VALID,0,VALID,99.5743,VALID,-0.271693,VALID,21.0133,VALID,24,VALID,0.683239,
2006-05-14, 02:08:00,VALID,918.262,VALID,0,VALID,99.6086,VALID,-0.220751,VALID,20.6253,VALID,24,VALID,1.13746,
2006-05-14, 02:09:00,VALID,918.264,VALID,0,VALID,99.6709,VALID,-0.20377,VALID,21.2392,VALID,27,VALID,1.15534,
2006-05-14, 02:10:00,VALID,918.254,VALID,0,VALID,99.6633,VALID,-0.237732,VALID,20.7686,VALID,21,VALID,0.950868,
2006-05-14, 02:11:00,VALID,918.234,VALID,0,VALID,99.6506,VALID,-0.271693,VALID,20.8278,VALID,21,VALID,0.908507,
2006-05-14, 02:12:00,VALID,918.245,VALID,0,VALID,99.6137,VALID,-0.220751,VALID,20.9055,VALID,18,VALID,0.918786,
2006-05-14, 02:13:00,VALID,918.252,VALID,0,VALID,99.6175,VALID,-0.254712,VALID,22.116,VALID,30,VALID,0.670732,
2006-05-14, 02:14:00,VALID,918.24,VALID,0,VALID,99.5552,VALID,-0.254712,VALID,21.6086,VALID,25,VALID,1.07922,
2006-05-14, 02:15:00,VALID,918.224,VALID,0,VALID,99.5285,VALID,-0.271693,VALID,20.0129,VALID,20,VALID,1.32667,
2006-05-14, 02:16:00,VALID,918.221,VALID,0,VALID,99.4814,VALID,-0.288674,VALID,22.5807,VALID,23,VALID,1.24414,
2006-05-14, 02:17:00,VALID,918.218,VALID,0,VALID,99.3835,VALID,-0.288674,VALID,21.7422,VALID,22,VALID,1.03011,
2006-05-14, 02:18:00,VALID,918.221,VALID,0,VALID,99.3403,VALID,-0.271693,VALID,21.8249,VALID,19,VALID,1.18403,
2006-05-14, 02:19:00,VALID,918.238,VALID,0,VALID,99.3085,VALID,-0.220751,VALID,21.5898,VALID,28,VALID,1.02572,
2006-05-14, 02:20:00,VALID,918.246,VALID,0,VALID,99.2945,VALID,-0.220751,VALID,21.1384,VALID,23,VALID,0.957564,
2006-05-14, 02:21:00,VALID,918.246,VALID,0,VALID,99.1712,VALID,-0.20377,VALID,21.0024,VALID,23,VALID,1.08249,
2006-05-14, 02:22:00,VALID,918.24,VALID,0,VALID,99.1025,VALID,-0.20377,VALID,19.1181,VALID,19,VALID,0.792878,
2006-05-14, 02:23:00,VALID,918.221,VALID,0,VALID,99.1228,VALID,-0.20377,VALID,22.3667,VALID,14,VALID,0.929893,
2006-05-14, 02:24:00,VALID,918.221,VALID,0,VALID,99.1012,VALID,-0.254712,VALID,21.8074,VALID,22,VALID,0.999047,
2006-05-14, 02:25:00,VALID,918.199,VALID,0,VALID,99.1419,VALID,-0.20377,VALID,20.405,VALID,25,VALID,1.13246,
2006-05-14, 02:26:00,VALID,918.19,VALID,0,VALID,99.1902,VALID,-0.237732,VALID,20.066,VALID,21,VALID,1.28182,
2006-05-14, 02:27:00,VALID,918.179,VALID,0,VALID,99.3047,VALID,-0.237732,VALID,20.9495,VALID,24,VALID,1.30609,
2006-05-14, 02:28:00,VALID,918.173,VALID,0,VALID,99.2983,VALID,-0.237732,VALID,22.2253,VALID,25,VALID,1.22196,
2006-05-14, 02:29:00,VALID,918.171,VALID,0,VALID,99.2907,VALID,-0.237732,VALID,20.4847,VALID,26,VALID,0.928354,
2006-05-14, 02:30:00,VALID,918.172,VALID,0,VALID,99.2767,VALID,-0.20377,VALID,22.1954,VALID,10,VALID,0.793968,
2006-05-14, 02:31:00,VALID,918.167,VALID,0,VALID,99.3848,VALID,-0.220751,VALID,21.5814,VALID,23,VALID,1.00632,
2006-05-14, 02:32:00,VALID,918.148,VALID,0,VALID,99.4191,VALID,-0.305655,VALID,21.0153,VALID,17,VALID,1.09756,
2006-05-14, 02:33:00,VALID,918.122,VALID,0,VALID,99.4573,VALID,-0.305655,VALID,21.2251,VALID,18,VALID,1.02326,
2006-05-14, 02:34:00,VALID,918.113,VALID,0,VALID,99.4878,VALID,-0.305655,VALID,20.6777,VALID,1,VALID,0.825335,
2006-05-14, 02:35:00,VALID,918.092,VALID,0,VALID,99.5145,VALID,-0.322636,VALID,20.7557,VALID,9,VALID,0.894717,
2006-05-14, 02:36:00,VALID,918.07,VALID,0,VALID,99.5514,VALID,-0.305655,VALID,20.847,VALID,11,VALID,0.830556,
2006-05-14, 02:37:00,VALID,918.07,VALID,0,VALID,99.5781,VALID,-0.288674,VALID,21.3168,VALID,332,VALID,0.562682,
2006-05-14, 02:38:00,VALID,918.065,VALID,0,VALID,99.6824,VALID,-0.20377,VALID,20.6039,VALID,357,VALID,0.584635,
2006-05-14, 02:39:00,VALID,918.043,VALID,0,VALID,99.7078,VALID,-0.20377,VALID,21.1398,VALID,13,VALID,0.530692,
2006-05-14, 02:40:00,VALID,918.044,VALID,0,VALID,99.7218,VALID,-0.220751,VALID,20.1606,VALID,13,VALID,0.878348,
2006-05-14, 02:41:00,VALID,918.054,VALID,0,VALID,99.7421,VALID,-0.271693,VALID,20.8374,VALID,15,VALID,0.801639,
2006-05-14, 02:42:00,VALID,918.055,VALID,0,VALID,99.7447,VALID,-0.271693,VALID,19.5702,VALID,8,VALID,0.729651,
2006-05-14, 02:43:00,VALID,918.053,VALID,0,VALID,99.7866,VALID,-0.288674,VALID,20.6673,VALID,342,VALID,1.02103,
2006-05-14, 02:44:00,VALID,918.047,VALID,0,VALID,99.8375,VALID,-0.288674,VALID,20.3818,VALID,1,VALID,0.959077,
2006-05-14, 02:45:00,VALID,918.045,VALID,0,VALID,99.9842,VALID,-0.271693,VALID,20.5344,VALID,357,VALID,0.728379,
2006-05-14, 02:46:00,VALID,918.056,VALID,0,VALID,100,VALID,-0.288674,VALID,21.7837,VALID,358,VALID,0.722266,
2006-05-14, 02:47:00,VALID,918.052,VALID,0,VALID,100,VALID,-0.271693,VALID,21.9036,VALID,344,VALID,0.712984,
2006-05-14, 02:48:00,VALID,918.047,VALID,0,VALID,100,VALID,-0.288674,VALID,20.8037,VALID,346,VALID,0.97561,
2006-05-14, 02:49:00,VALID,918.039,VALID,0,VALID,100,VALID,-0.271693,VALID,20.13,VALID,356,VALID,0.728237,
2006-05-14, 02:50:00,VALID,918.047,VALID,0,VALID,100,VALID,-0.254712,VALID,19.4402,VALID,356,VALID,0.625391,
2006-05-14, 02:51:00,VALID,918.038,VALID,0,VALID,100,VALID,-0.288674,VALID,20.3782,VALID,6,VALID,0.780717,
2006-05-14, 02:52:00,VALID,918.026,VALID,0,VALID,100,VALID,-0.288674,VALID,21.4568,VALID,16,VALID,0.788876,
2006-05-14, 02:53:00,VALID,918.011,VALID,0,VALID,100,VALID,-0.271693,VALID,21.2309,VALID,11,VALID,1.15044,
2006-05-14, 02:54:00,VALID,918.012,VALID,0,VALID,100,VALID,-0.169808,VALID,20.2535,VALID,10,VALID,0.519531,
2006-05-14, 02:55:00,VALID,917.991,VALID,0,VALID,100,VALID,-0.20377,VALID,20.6842,VALID,8,VALID,0.947599,
2006-05-14, 02:56:00,VALID,917.982,VALID,0,VALID,100,VALID,-0.271693,VALID,20.9386,VALID,2,VALID,1.11868,
2006-05-14, 02:57:00,VALID,917.968,VALID,0,VALID,100,VALID,-0.20377,VALID,19.7853,VALID,343,VALID,1.42297,
2006-05-14, 02:58:00,VALID,917.962,VALID,0,VALID,100,VALID,-0.288674,VALID,20.6448,VALID,11,VALID,1.79353,
2006-05-14, 02:59:00,VALID,917.948,VALID,0,VALID,100,VALID,-0.20377,VALID,20.5267,VALID,16,VALID,1.29815,
2006-05-14, 03:00:00,VALID,917.93,VALID,0,VALID,100,VALID,-0.254712,VALID,21.8361,VALID,21,VALID,0.913281,
2006-05-14, 03:01:00,VALID,917.918,VALID,0,VALID,100,VALID,-0.305655,VALID,20.8757,VALID,12,VALID,0.604441,
2006-05-14, 03:02:00,VALID,917.906,VALID,0,VALID,100,VALID,-0.288674,VALID,21.46,VALID,3,VALID,0.410823,
2006-05-14, 03:03:00,VALID,917.904,VALID,0,VALID,100,VALID,-0.288674,VALID,19.6039,VALID,305,VALID,0.478561,
2006-05-14, 03:04:00,VALID,917.894,VALID,0,VALID,100,VALID,-0.271693,VALID,20.3587,VALID,355,VALID,0.21189,
2006-05-14, 03:05:00,VALID,917.889,VALID,0,VALID,100,VALID,-0.288674,VALID,20.6524,VALID,19,VALID,0.123326,
2006-05-14, 03:06:00,VALID,917.878,VALID,0,VALID,100,VALID,-0.288674,VALID,21.336,VALID,25,VALID,0.141226,
2006-05-14, 03:07:00,VALID,917.86,VALID,0,VALID,100,VALID,-0.169808,VALID,21.0549,VALID,25,VALID,0.496466,
2006-05-14, 03:08:00,VALID,917.844,VALID,0,VALID,100,VALID,-0.20377,VALID,20.2093,VALID,22,VALID,0.737165,
2006-05-14, 03:09:00,VALID,917.818,VALID,0,VALID,100,VALID,-0.254712,VALID,21.631,VALID,5,VALID,0.790516,
2006-05-14, 03:10:00,VALID,917.805,VALID,0,VALID,100,VALID,-0.254712,VALID,20.8646,VALID,10,VALID,0.664583,
2006-05-14, 03:11:00,VALID,917.779,VALID,0,VALID,100,VALID,-0.254712,VALID,20.7376,VALID,17,VALID,0.742374,
2006-05-14, 03:12:00,VALID,917.762,VALID,0,VALID,100,VALID,-0.288674,VALID,20.7332,VALID,17,VALID,0.7393,
2006-05-14, 03:13:00,VALID,917.769,VALID,0,VALID,100,VALID,-0.288674,VALID,19.9891,VALID,17,VALID,0.588415,
2006-05-14, 03:14:00,VALID,917.764,VALID,0,VALID,100,VALID,-0.20377,VALID,20.6133,VALID,17,VALID,0.350446,
2006-05-14, 03:15:00,VALID,917.74,VALID,0,VALID,100,VALID,-0.20377,VALID,21.2549,VALID,17,VALID,0.362723,
2006-05-14, 03:16:00,VALID,917.701,VALID,0,VALID,100,VALID,-0.237732,VALID,21.1563,VALID,18,VALID,0.442224,
2006-05-14, 03:17:00,VALID,917.665,VALID,0,VALID,100,VALID,-0.271693,VALID,20.6447,VALID,19,VALID,0.933594,
2006-05-14, 03:18:00,VALID,917.64,VALID,0,VALID,100,VALID,-0.20377,VALID,21.0317,VALID,18,VALID,0.837305,
2006-05-14, 03:19:00,VALID,917.623,VALID,0,VALID,100,VALID,-0.169808,VALID,20.4279,VALID,17,VALID,0.933008,
2006-05-14, 03:20:00,VALID,917.599,VALID,0,VALID,100,VALID,-0.169808,VALID,20.1917,VALID,17,VALID,1.04573,
2006-05-14, 03:21:00,VALID,917.578,VALID,0,VALID,99.9977,VALID,-0.254712,VALID,20.2616,VALID,333,VALID,1.13066,
2006-05-14, 03:22:00,VALID,917.571,VALID,0,VALID,99.9929,VALID,-0.288674,VALID,21.8543,VALID,357,VALID,1.41726,
2006-05-14, 03:23:00,VALID,917.568,VALID,0,VALID,99.9964,VALID,-0.237732,VALID,21.7711,VALID,20,VALID,1.1276,
2006-05-14, 03:24:00,VALID,917.561,VALID,0,VALID,100,VALID,-0.20377,VALID,21.6212,VALID,4,VALID,1.08017,
2006-05-14, 03:25:00,VALID,917.547,VALID,0,VALID,100,VALID,-0.20377,VALID,20.2253,VALID,346,VALID,0.863839,
2006-05-14, 03:26:00,VALID,917.519,VALID,0,VALID,100,VALID,-0.152827,VALID,21.3812,VALID,20,VALID,1.25449,
2006-05-14, 03:27:00,VALID,917.495,VALID,0,VALID,100,VALID,-0.169808,VALID,20.1784,VALID,1,VALID,1.31552,
2006-05-14, 03:28:00,VALID,917.464,VALID,0,VALID,100,VALID,-0.186789,VALID,19.9058,VALID,5,VALID,1.43979,
2006-05-14, 03:29:00,VALID,917.449,VALID,0,VALID,100,VALID,-0.169808,VALID,20.3876,VALID,12,VALID,1.19855,
2006-05-14, 03:30:00,VALID,917.451,VALID,0,VALID,100,VALID,-0.152827,VALID,20.0962,VALID,16,VALID,0.583576,
2006-05-14, 03:31:00,VALID,917.441,VALID,0,VALID,100,VALID,-0.169808,VALID,21.2501,VALID,15,VALID,0.962798,
2006-05-14, 03:32:00,VALID,917.441,VALID,0,VALID,100,VALID,-0.186789,VALID,21.3781,VALID,1,VALID,0.820313,
2006-05-14, 03:33:00,VALID,917.436,VALID,0,VALID,100,VALID,-0.152827,VALID,20.762,VALID,12,VALID,0.724132,
2006-05-14, 03:34:00,VALID,917.444,VALID,0,VALID,100,VALID,-0.169808,VALID,19.5914,VALID,20,VALID,0.911882,
2006-05-14, 03:35:00,VALID,917.453,VALID,0,VALID,100,VALID,-0.220751,VALID,21.6164,VALID,22,VALID,1.15417,